Location: *
(52.2090°N, 4.1550°W)
Time: 03:27:06
(UTC+00:00)

Cosmos 1666 Rocket - Pass Details

Date: 19 July 2019
Orbit: 603 x 634 km, 82.5° (Epoch: 20 August)

Event Time Altitude Azimuth Distance (km) Brightness Sun altitude
Exits shadow 22:47:37 19° 187° (S) 1,533 5.1 -14.1°
Maximum altitude 22:50:53 87° 103° (ESE) 643 3.6 -14.3°
Drops below altitude 10° 22:55:24 10° 11° (NNE) 2,030 7.1 -14.6°
Sets 22:57:39 0° 12° (NNE) 2,940 8.1 -14.7°
